Location: 22
(39.7117°N, 89.5929°W)
Time: 19:04:58
(UTC-05:00)

Vanguard 3 - Pass Details

Date: 30 January 2023
Orbit: 508 x 3249 km, 33.4° (Epoch: 30 March)

Event Time Altitude Azimuth Distance (km) Brightness Sun altitude
Rises 17:53:05 0° 207° (SSW) 4,086 11.5 -7.6°
Reaches altitude 10° 17:55:52 10° 196° (SSW) 3,451 10.8 -8.1°
Maximum altitude 18:03:39 30° 139° (SE) 3,006 9.8 -9.6°
Enters shadow 18:14:35 12° 88° (E) 5,154 10.6 -11.6°
Drops below altitude 10° 18:15:36 10° 86° (E) 5,402 - -11.8°
Sets 18:21:18 0° 78° (ENE) 6,785 - -12.9°
